This demonstration page uses our WeatherBlox Daily Observations layout. Learn more.

Left ArrowRight Arrow

38.83388, -104.82136

Hourly Observations for October 3, 2022

Temp ( °F °C ) Dew Point ( °F °C ) Humidity (%) Winds ( mph kmh ) Pressure ( in mb ) Visibility ( mi km ) Precip ( " mm )
12:56 am 00:56 Mostly Clear 55 12.8 38 3.2 52 52 NW 8 13 29.10 986 10 16 0.00 0.00
1:56 am 01:56 Mostly Cloudy 55 13 35 1.9 47 47 WNW 3 6 29.09 985 10 16 0.00 0.00
2:56 am 02:56 Mostly Clear 55 12.7 36 2 48 48 Calm 29.08 985 10 16 0.00 0.00
3:56 am 03:56 Cloudy 57 13.8 39 3.8 51 51 SSW 9 15 29.09 985 10 16 0.00 0.00
4:56 am 04:56 Mostly Clear 55 12.6 40 4.6 58 58 Calm 29.06 984 10 16 0.00 0.00
5:56 am 05:56 Cloudy 53 11.8 40 4.3 60 60 WNW 5 7 29.09 985 10 16 0.00 0.00
6:56 am 06:56 Cloudy 54 12.1 38 3.6 56 56 NW 7 11 29.08 985 10 16 0.00 0.00
7:56 am 07:56 Cloudy 56 13.6 39 3.9 52 52 N 3 6 29.17 988 10 16 0.00 0.00
8:56 am 08:56 Mostly Cloudy 58 14.3 38 3.4 48 48 Calm 29.23 990 10 16 0.00 0.00
9:56 am 09:56 Cloudy 57 13.9 39 3.9 51 51 N 5 7 29.26 991 10 16 0.00 0.00
10:56 am 10:56 Partly Cloudy 62 16.5 37 2.8 40 40 Calm 29.33 993 10 16 0.00 0.00
11:56 am 11:56 Mostly Sunny 65 18.5 38 3.1 36 36 E 6 9 29.47 998 10 16 0.00 0.00
12:56 pm 12:56 Cloudy 64 18 35 1.9 34 34 NE 3 6 29.44 997 9 14 0.00 0.00
1:56 pm 13:56 Cloudy 64 17.7 34 1.2 33 33 Calm 29.37 995 10 16 0.00 0.00
2:56 pm 14:56 Partly Cloudy 68 20.1 36 2 30 30 ESE 10 17 29.49 999 10 16 0.00 0.00
3:56 pm 15:56 Mostly Cloudy 64 17.7 35 1.6 34 34 SE 6 9 29.31 993 10 16 0.00 0.00
4:56 pm 16:56 Partly Cloudy 63 17.2 36 2 36 36 SE 7 11 29.24 990 10 16 0.00 0.00
5:56 pm 17:56 Partly Cloudy 62 16.5 37 2.5 39 39 ESE 8 13 29.24 990 10 16 0.00 0.00
6:56 pm 18:56 Cloudy 59 15.2 35 1.7 40 40 S 3 6 29.18 988 10 16 0.00 0.00
7:56 pm 19:56 Mostly Cloudy 58 14.4 37 2.6 45 45 S 8 13 29.17 988 10 16 0.00 0.00
8:56 pm 20:56 Mostly Cloudy 57 13.7 39 4 52 52 N 13 20 29.18 988 10 16 0.00 0.00
9:56 pm 21:56 Cloudy 55 12.7 40 4.4 57 57 NW 14 22 29.21 989 10 16 0.00 0.00
10:56 pm 22:56 Cloudy 55 12.6 41 4.8 59 59 N 14 22 29.16 988 10 16 0.00 0.00
11:56 pm 23:56 Cloudy 52 11.2 42 5.7 69 69 N 9 15 29.12 986 10 16 0.00 0.00

Powered by AerisWeather